DECAYED

COSMOS 2251 DEB, 33759 (Decayed)

Orbit data source: Space-Track

COSMOS 2251 DEB, 33759 was space debris in LEO originally from a launch on Wed, 16 Jun 1993 UTC launched from the Plesetsk Missile And Space Complex (PKMTR). The debris from Iridium 33, an American commercial communications satellite, has been tracked extensively since its accidental collision with the defunct Russian satellite Cosmos 2251 in 2009. This event, occurring at high speed in low Earth orbit (LEO), generated thousands of pieces of space debris, significantly increasing the risk of further collisions. The Iridium 33 debris cloud has impacted space traffic management and orbital debris mitigation strategies, making it a subject of ongoing study in space situational awareness.

Not visible in the next 10 days
Identifier
33759, 1993-036G
Orbit
Decayed
Country
Flag of CISCIS
Related business
Manufacturer
Unknown
Mission
Decayed spacecraft
Bus & Motor
Unknown
Mass
Unknown
Launch date (UTC)
1993-06-16 (32 years ago)
Launch vehicle
Unknown
Launch site
Plesetsk Missile And Space Complex (PKMTR)
Object type
Payload
Rocket body
Debris
Shape & HBR
Unknown shape, 0.1 m
Radar Cross Section
Small (<0.1 m²)

Expand to show TLE details & history
Last TLE update: 6 months ago

TLE from 6 months ago
0 COSMOS 2251 DEB
1 33759U 93036G   25100.51552538  .18632758  19201-5  86291-2 0  9996
2 33759  73.9578 108.7792 0012003 246.6229 113.3759 16.21465048854394
Epoch: 2025-04-10T12:22Z
TLE epoch observation values (Epoch: 2025-04-10T12:22:21.392Z)
Latitude
-0.00001°
Longitude
84.20328°
Altitude
221.552 km
Speed
7.772 km/s
True Right ascension
07h 15m 07s
True Declination
0° 00' 00"
Sunlit
Object was in daylight at epoch
Visualization orbit readout
Latitude
Unknown
Longitude
Unknown
Altitude
Unknown
Speed
Unknown
Apparent Right ascension
Unknown
Apparent Declination
Unknown
Sunlit
N/A
Visualization observer readout
Local Sidereal Time
09:33:22
Azimuth
Unknown
Elevation
Unknown
Doppler factor
Unknown
Orbital elements
Apogee altitude
220.919 km
Perigee altitude
205.096 km
Semi-major axis
6,591.144 km
Eccentricity
0.0012
Inclination
73.9578°
RAAN
108.7792°
Arg. of periapsis
246.6229°
True anomaly
113.50208°
Mean anomaly
113.3759°
Eccentric anomaly
113.439°
Mean motion
4.05604 °/min
Orbital period
88.76 mins
BSTAR
0.0086291

Documentation

Showing up to 5 results
|